[[{"header":{"parameterUnit":"m.s-1","parameterCategory":1,"la1":30.2992,"la2":30.254,"lo1":-89.0895,"lo2":-89.0443,"dy":0.0025,"dx":0.0025,"nx":19,"ny":19,"refTime":"2026-04-04T09:00:00:Z","depth":0,"parameterNumber":2,"parameterNumberName":"U-component_of_WINDS"},"data":[0,0,0,-2.6327,-2.6331,-2.6546,-2.6547,-2.6836,-2.6839,0,0,0,0,0,0,0,0,0,0,0,-2.627,-2.6272,-2.6326,-2.6332,-2.6546,-2.6547,-2.6836,-2.6839,0,0,0,0,0,0,0,0,0,0,0,-2.6269,-2.6271,-2.6274,-2.6333,-2.6546,-2.6547,-2.6835,-2.6668,0,0,0,0,0,0,0,0,0,0,-2.6458,-2.6411,-2.6271,-2.6274,-2.6334,-2.6546,-2.6547,-2.666,-2.6679,-2.6744,0,-2.6803,0,-2.6825,-2.6859,-2.686,0,0,0,-2.6327,-2.6396,-2.6447,-2.6275,-2.6336,-2.6546,-2.6448,-2.667,-2.6692,-2.6769,-2.6807,-2.6817,-2.683,-2.6861,-2.6862,-2.7252,-2.7254,0,0,-2.6316,-2.6313,-2.6433,-2.6461,-2.6427,-2.6441,-2.6455,-2.6683,-2.6725,-2.6808,-2.6824,-2.6835,-2.6863,-2.6865,-2.725,-2.7252,0,0,0,-2.6284,-2.6305,-2.635,-2.645,-2.6487,-2.6448,-2.6463,-2.6715,-2.6729,-2.6827,-2.6838,-2.6865,-2.6868,-2.7248,-2.7251,-2.735,0,0,0,-2.6277,-2.6287,-2.6345,-2.6346,-2.6483,-2.6603,-2.649,-2.6714,-2.6739,-2.6837,-2.6865,-2.6871,-2.7246,-2.7249,-2.7343,-2.7399,0,0,0,-2.6254,-2.6284,-2.6317,-2.6345,-2.6437,-2.6599,-2.6627,-2.6719,-2.6747,-2.686,-2.6872,-2.7244,-2.7249,-2.7336,-2.7388,-2.7503,0,0,0,-2.6228,-2.6402,-2.6318,-2.6517,-2.6435,-2.6657,-2.6626,-2.6792,-2.6901,-2.6866,-2.7246,-2.7251,-2.7334,-2.7381,-2.7496,-2.7602,-2.7645,0,0,-2.6446,-2.6428,-2.6545,-2.6476,-2.6713,-2.6625,-2.6877,-2.698,-2.6993,-2.7165,-2.7175,-2.7345,-2.7387,-2.7502,-2.7879,-2.7913,0,0,0,-2.6613,-2.6698,-2.6761,-2.6863,-2.6944,-2.702,-2.7083,-2.7122,-2.7268,-2.708,-2.7416,-2.7441,-2.7508,-2.7559,-2.7589,-2.7648,-2.7273,-2.7272,-2.7272,-2.6921,-2.6927,-2.7122,-2.7155,-2.7254,-2.7318,-2.74,-2.7463,-2.7441,-2.752,-2.7573,-2.7801,-2.786,-2.7882,-2.7944,-2.7626,-2.7626,-2.7626,-2.7627,-2.7244,-2.7366,-2.733,-2.7507,-2.7513,-2.7662,-2.773,-2.771,-2.7851,-2.7761,-2.7821,-2.7726,-2.7919,-2.7974,-2.7634,-2.7633,-2.7632,-2.7631,-2.7631,-2.745,-2.751,-2.7551,-2.77,-2.7814,-2.784,-2.7978,-2.7978,-2.7979,-2.8038,-2.8095,-2.8094,-2.8096,-2.8064,-2.8065,-2.8066,-2.8066,-2.8067,-2.8067,-2.7649,-2.7692,-2.7807,-2.7906,-2.7972,-2.806,-2.8124,-2.819,-2.8263,-2.8253,-2.8253,-2.8226,-2.7934,-2.7864,-2.808,-2.8078,-2.8076,-2.8075,-2.8074,-2.7982,-2.7906,-2.8084,-2.815,-2.8267,-2.8382,-2.8378,-2.8512,-2.8566,-2.8635,-2.8593,-2.8376,-2.8359,-2.8336,-2.8278,-2.8588,-2.8588,-2.8588,-2.8588,-2.8159,-2.8148,-2.833,-2.8436,-2.8539,-2.8554,-2.8757,-2.8809,-2.885,-2.8885,-2.8839,-2.876,-2.8736,-2.8733,-2.8702,-2.8648,-2.9045,-2.9046,-2.9046,-2.8366,-2.8365,-2.8538,-2.8575,-2.8666,-2.8746,-2.8937,-2.9062,-2.9093,-2.9065,-2.8913,-2.8894,-2.8766,-2.8724,-2.8697,-2.8647,-2.8548,0,0]},{"header":{"parameterUnit":"m.s-1","parameterCategory":1,"la1":30.2992,"la2":30.254,"lo1":-89.0895,"lo2":-89.0443,"dy":0.0025,"dx":0.0025,"nx":19,"ny":19,"refTime":"2026-04-04T09:00:00:Z","depth":0,"parameterNumber":3,"parameterNumberName":"V-component_of_WINDS"},"data":[0,0,0,-6.0648,-6.0652,-6.0834,-6.0835,-6.1077,-6.108,0,0,0,0,0,0,0,0,0,0,0,-6.0603,-6.0605,-6.0648,-6.0652,-6.0834,-6.0835,-6.1077,-6.108,0,0,0,0,0,0,0,0,0,0,0,-6.0602,-6.0605,-6.0607,-6.0653,-6.0834,-6.0835,-6.1076,-6.0935,0,0,0,0,0,0,0,0,0,0,-6.0756,-6.0725,-6.0604,-6.0607,-6.0654,-6.0834,-6.0835,-6.0928,-6.0944,-6.1,0,-6.1056,0,-6.1072,-6.1097,-6.1098,0,0,0,-6.0645,-6.0712,-6.0753,-6.0608,-6.0656,-6.0834,-6.075,-6.0937,-6.0955,-6.1021,-6.1059,-6.1068,-6.1076,-6.1099,-6.11,-6.1457,-6.1459,0,0,-6.0635,-6.064,-6.074,-6.0765,-6.0741,-6.0744,-6.0756,-6.0947,-6.0988,-6.106,-6.1073,-6.108,-6.11,-6.1102,-6.1456,-6.1458,0,0,0,-6.0611,-6.0634,-6.067,-6.0755,-6.0787,-6.075,-6.0763,-6.0979,-6.099,-6.1076,-6.1083,-6.1102,-6.1105,-6.1453,-6.1456,-6.1564,0,0,0,-6.0605,-6.062,-6.0666,-6.0671,-6.0784,-6.0886,-6.0791,-6.0977,-6.0999,-6.1082,-6.1102,-6.1107,-6.1451,-6.1455,-6.1556,-6.1613,0,0,0,-6.0588,-6.0618,-6.0647,-6.0671,-6.0749,-6.0883,-6.0905,-6.0982,-6.1004,-6.1098,-6.1108,-6.145,-6.1454,-6.1549,-6.1602,-6.171,0,0,0,-6.0571,-6.0739,-6.0649,-6.0838,-6.0748,-6.0949,-6.0904,-6.1052,-6.1146,-6.1103,-6.1451,-6.1456,-6.1547,-6.1595,-6.1702,-6.1802,-6.1844,0,0,-6.0786,-6.0765,-6.0876,-6.0801,-6.1019,-6.092,-6.1153,-6.1232,-6.1234,-6.1382,-6.1391,-6.1558,-6.1601,-6.1708,-6.2076,-6.211,0,0,0,-6.0945,-6.1025,-6.1082,-6.1173,-6.1239,-6.1299,-6.1343,-6.1372,-6.1497,-6.1313,-6.1626,-6.1651,-6.1713,-6.1761,-6.1789,-6.1842,-6.1478,-6.1478,-6.1477,-6.1257,-6.1252,-6.1435,-6.1453,-6.1541,-6.1584,-6.1654,-6.17,-6.1669,-6.1743,-6.1787,-6.2011,-6.2067,-6.2088,-6.2144,-6.1838,-6.1839,-6.1839,-6.1839,-6.157,-6.1683,-6.1638,-6.1799,-6.1793,-6.1927,-6.1973,-6.1947,-6.2069,-6.1977,-6.2032,-6.1933,-6.2125,-6.2173,-6.1847,-6.1846,-6.1845,-6.1844,-6.1844,-6.1775,-6.1828,-6.1862,-6.1992,-6.2093,-6.2103,-6.2223,-6.2212,-6.2201,-6.2255,-6.2301,-6.2299,-6.2296,-6.2278,-6.2278,-6.2279,-6.228,-6.228,-6.2281,-6.1974,-6.2009,-6.2113,-6.2197,-6.2253,-6.2326,-6.2369,-6.2423,-6.248,-6.2462,-6.2462,-6.2423,-6.2145,-6.2076,-6.2293,-6.2291,-6.2289,-6.2288,-6.2287,-6.2296,-6.2221,-6.2383,-6.244,-6.2536,-6.2636,-6.262,-6.2731,-6.2773,-6.2833,-6.2782,-6.2578,-6.2555,-6.2532,-6.2475,-6.2782,-6.2782,-6.2782,-6.2782,-6.2469,-6.2457,-6.2619,-6.2711,-6.2798,-6.28,-6.298,-6.3014,-6.3037,-6.3063,-6.3016,-6.2939,-6.2916,-6.2907,-6.2876,-6.2822,-6.3211,-6.3212,-6.3212,-6.2667,-6.2662,-6.282,-6.2844,-6.2918,-6.2981,-6.315,-6.3254,-6.3264,-6.3229,-6.3083,-6.3065,-6.2939,-6.2899,-6.2862,-6.2814,-6.2715,0,0]}]]